[[{"header":{"parameterUnit":"m.s-1","parameterCategory":1,"la1":30.2991,"la2":30.254,"lo1":-89.0895,"lo2":-89.0444,"dy":0.0017,"dx":0.0017,"nx":28,"ny":28,"refTime":"2025-06-11T09:00:00:Z","depth":0,"parameterNumber":2,"parameterNumberName":"U-component_of_WINDS"},"data":[0,0,0,0,0,0,0,0,0,0,0,0,0,0,0,0,0,0,0,0,0,0,0,0,0,0,0,0,0,0,0,0,0,0,0,0,0,0,0,0,0,0,0,0,0,0,0,0,0,0,0,0,0,0,0,0,0,0,-3.1215,-3.1215,0,-3.1267,-3.1268,-3.1268,-3.1235,-3.1233,-3.1231,-3.123,-3.1284,-3.1287,-3.129,0,0,0,0,0,0,0,0,0,0,0,0,0,-3.1086,-3.1088,-3.1215,-3.1215,-3.1216,-3.1267,-3.1268,-3.1269,-3.1235,-3.1233,-3.1231,-3.1229,-3.1283,-3.1287,-3.129,0,0,0,0,0,0,0,0,0,0,0,0,0,-3.1141,-3.1089,-3.1215,-3.1205,-3.1205,-3.1267,-3.1268,-3.1269,-3.1235,-3.1233,-3.1231,-3.1228,-3.1282,-3.1286,-3.1291,-3.1365,0,0,-3.1304,-3.1306,0,0,0,0,0,0,0,0,-3.1137,-3.1145,-3.1206,-3.1206,-3.1206,-3.1242,-3.1242,-3.1301,-3.1236,-3.1224,-3.123,-3.1227,-3.1272,-3.1277,-3.1292,-3.1367,-3.1369,-3.1304,-3.1307,-3.1309,-3.131,0,0,0,0,0,0,0,-3.1134,-3.1143,-3.1235,-3.1207,-3.1207,-3.1199,-3.1204,-3.1253,-3.126,-3.1225,-3.1222,-3.1229,-3.1271,-3.1288,-3.1293,-3.137,-3.1304,-3.1308,-3.1311,-3.1312,-3.1509,-3.1511,0,0,0,0,0,0,-3.1131,-3.114,-3.1234,-3.1237,-3.1165,-3.1203,-3.1209,-3.1233,-3.126,-3.1262,-3.1231,-3.1227,-3.1282,-3.1288,-3.1295,-3.1383,-3.1309,-3.1313,-3.1315,-3.1506,-3.1509,-3.1512,0,0,0,0,0,0,-3.1128,-3.1139,-3.1232,-3.1188,-3.1199,-3.1208,-3.1235,-3.1235,-3.1251,-3.1265,-3.1266,-3.1246,-3.128,-3.1289,-3.1347,-3.1384,-3.1315,-3.1319,-3.1503,-3.1507,-3.1511,-3.156,0,0,0,0,0,0,-3.1124,-3.1139,-3.1167,-3.1189,-3.1201,-3.1283,-3.1237,-3.1238,-3.1259,-3.1255,-3.1279,-3.1281,-3.1279,-3.1341,-3.1352,-3.1389,-3.1322,-3.15,-3.1505,-3.151,-3.1555,-3.1565,-3.1574,0,0,0,0,0,-3.112,-3.1178,-3.1168,-3.118,-3.1237,-3.1286,-3.1293,-3.1289,-3.1262,-3.129,-3.1299,-3.128,-3.1379,-3.1347,-3.1359,-3.1398,-3.1497,-3.1503,-3.1509,-3.1551,-3.1563,-3.1574,0,0,0,0,0,0,-3.116,-3.1181,-3.117,-3.1237,-3.126,-3.128,-3.1315,-3.1302,-3.1333,-3.1327,-3.1321,-3.1327,-3.1388,-3.1399,-3.1364,-3.1472,-3.1434,-3.1443,-3.1462,-3.1474,-3.1483,-3.1478,-3.1326,0,0,0,0,0,-3.1177,-3.1215,-3.1231,-3.1289,-3.1301,-3.1306,-3.1328,-3.1323,-3.1346,-3.1355,-3.1368,-3.1391,-3.1427,-3.1451,-3.1485,-3.1557,-3.1562,-3.159,-3.1599,-3.1607,-3.1614,-3.1653,-3.1665,-3.1531,-3.1531,-3.1531,0,0,-3.1212,-3.1228,-3.1252,-3.1298,-3.1314,-3.1354,-3.1315,-3.1358,-3.1387,-3.1362,-3.1418,-3.1428,-3.1454,-3.1519,-3.1549,-3.1531,-3.1652,-3.1614,-3.162,-3.1623,-3.166,-3.1673,-3.1684,-3.1535,-3.1535,-3.1534,0,0,-3.1296,-3.1312,-3.1362,-3.138,-3.1406,-3.1409,-3.1421,-3.1443,-3.1449,-3.1505,-3.1487,-3.1522,-3.1585,-3.1604,-3.1621,-3.1713,-3.1697,-3.1725,-3.1773,-3.1811,-3.1821,-3.183,-3.1863,-3.1874,-3.1732,-3.1732,-3.1732,0,-3.1336,-3.1394,-3.1389,-3.1434,-3.1454,-3.1433,-3.1484,-3.1502,-3.1538,-3.1552,-3.1531,-3.161,-3.1625,-3.1695,-3.1718,-3.1733,-3.1746,-3.1721,-3.182,-3.1829,-3.1838,-3.1869,-3.1881,-3.1735,-3.1735,-3.1734,-3.1734,0,-3.1442,-3.1483,-3.152,-3.1555,-3.158,-3.1628,-3.163,-3.1656,-3.1649,-3.1655,-3.1712,-3.1731,-3.1768,-3.1785,-3.1779,-3.1854,-3.1842,-3.1821,-3.1782,-3.1854,-3.1883,-3.1894,-3.174,-3.1738,-3.1738,-3.1737,0,0,-3.1552,-3.1584,-3.1598,-3.1613,-3.1641,-3.1672,-3.1719,-3.1756,-3.1778,-3.1804,-3.1843,-3.1897,-3.1877,-3.1898,-3.1894,-3.1927,-3.1998,-3.1902,-3.1903,-3.1919,-3.2082,-3.2097,-3.2111,-3.1988,-3.1991,-3.1992,-3.208,0,-3.1637,-3.1718,-3.1715,-3.179,-3.1828,-3.1809,-3.185,-3.1872,-3.1878,-3.1912,-3.1919,-3.1957,-3.1929,-3.1941,-3.1974,-3.1983,-3.2031,-3.1977,-3.2024,-3.2026,-3.2017,-3.2126,-3.2142,-3.2223,-3.2091,-3.2093,-3.2094,0,-3.1746,-3.1775,-3.1855,-3.1877,-3.1892,-3.1929,-3.1962,-3.1994,-3.2019,-3.2021,-3.2044,-3.2035,-3.2083,-3.2045,-3.211,-3.2073,-3.2093,-3.2101,-3.2104,-3.2107,-3.2064,-3.2132,-3.2249,-3.2261,-3.2112,-3.2111,-3.2109,0,-3.1817,-3.1877,-3.1932,-3.1946,-3.1973,-3.2,-3.2012,-3.2034,-3.2056,-3.2086,-3.21,-3.2135,-3.2154,-3.2181,-3.2182,-3.2154,-3.2248,-3.221,-3.2251,-3.2252,-3.2271,-3.227,-3.2393,-3.2285,-3.2285,-3.2285,-3.2285,0,-3.1912,-3.1961,-3.1964,-3.1998,-3.2053,-3.2049,-3.2104,-3.2114,-3.2134,-3.2169,-3.2156,-3.219,-3.2189,-3.2223,-3.2224,-3.2278,-3.2287,-3.2291,-3.229,-3.2291,-3.2291,-3.2303,-3.2298,-3.2288,-3.2288,-3.2287,-3.2286,0,-3.2001,-3.2005,-3.2063,-3.2085,-3.2091,-3.213,-3.2149,-3.2181,-3.2187,-3.2232,-3.2243,-3.2252,-3.2292,-3.2295,-3.2342,-3.2343,-3.2408,-3.2402,-3.24,-3.2398,-3.244,-3.2435,-3.2574,-3.2592,-3.2474,-3.2475,-3.2476,0,-3.206,-3.2098,-3.2123,-3.2145,-3.216,-3.2197,-3.2219,-3.2217,-3.2242,-3.2272,-3.2301,-3.234,-3.237,-3.2435,-3.2446,-3.2482,-3.2476,-3.2522,-3.2481,-3.2481,-3.2476,-3.2474,-3.2477,-3.253,-3.2531,-3.2532,-3.2533,0,-3.2166,-3.2166,-3.2199,-3.2233,-3.226,-3.2287,-3.2311,-3.2331,-3.2332,-3.236,-3.2401,-3.2425,-3.2472,-3.2511,-3.2546,-3.2559,-3.2547,-3.2546,-3.2558,-3.2559,-3.2556,-3.2558,-3.242,-3.2543,-3.2542,-3.2541,-3.2541,-3.254,-3.2242,-3.2274,-3.2296,-3.2333,-3.2352,-3.2376,-3.2407,-3.2417,-3.245,-3.2488,-3.2486,-3.2531,-3.2554,-3.26,-3.2616,-3.2651,-3.2636,-3.2653,-3.2657,-3.2661,-3.2665,-3.2551,-3.2658,-3.2658,-3.2657,-3.2657,-3.2657,0,-3.2346,-3.236,-3.2394,-3.2429,-3.2458,-3.2444,-3.247,-3.2496,-3.2535,-3.2558,-3.2589,-3.2636,-3.2673,-3.2687,-3.2724,-3.275,-3.2745,-3.2759,-3.2757,-3.276,-3.2677,-3.2663,-3.2763,-3.2763,-3.2763,-3.2762,-3.2762,-3.2762,-3.2404,-3.2457,-3.246,-3.2523,-3.2536,-3.258,-3.2597,-3.2618,-3.2637,-3.2689,-3.272,-3.2729,-3.2749,-3.2787,-3.2821,-3.2824,-3.2838,-3.2855,-3.2855,-3.2777,-3.2766,-3.2756,-3.2743,-3.2858,-3.2858,-3.2936,-3.2937,-3.2937]},{"header":{"parameterUnit":"m.s-1","parameterCategory":1,"la1":30.2991,"la2":30.254,"lo1":-89.0895,"lo2":-89.0444,"dy":0.0017,"dx":0.0017,"nx":28,"ny":28,"refTime":"2025-06-11T09:00:00:Z","depth":0,"parameterNumber":3,"parameterNumberName":"V-component_of_WINDS"},"data":[0,0,0,0,0,0,0,0,0,0,0,0,0,0,0,0,0,0,0,0,0,0,0,0,0,0,0,0,0,0,0,0,0,0,0,0,0,0,0,0,0,0,0,0,0,0,0,0,0,0,0,0,0,0,0,0,0,0,4.6718,4.6718,0,4.6723,4.6723,4.6723,4.6682,4.668,4.6679,4.6678,4.6682,4.6684,4.6685,0,0,0,0,0,0,0,0,0,0,0,0,0,4.6673,4.6674,4.6718,4.6718,4.6718,4.6723,4.6723,4.6723,4.6682,4.668,4.6679,4.6678,4.6682,4.6683,4.6685,0,0,0,0,0,0,0,0,0,0,0,0,0,4.6687,4.6674,4.6718,4.6698,4.6697,4.6723,4.6723,4.6723,4.6682,4.668,4.6679,4.6677,4.6682,4.6683,4.6685,4.6731,0,0,4.6691,4.6691,0,0,0,0,0,0,0,0,4.6686,4.6688,4.6701,4.67,4.6698,4.67,4.6709,4.6726,4.6682,4.6688,4.6678,4.6676,4.669,4.6691,4.6695,4.6731,4.6731,4.6691,4.6692,4.6693,4.6693,0,0,0,0,0,0,0,4.6685,4.6688,4.672,4.6701,4.6699,4.6689,4.6689,4.6712,4.6698,4.6687,4.6684,4.6685,4.6688,4.6694,4.6695,4.6731,4.6691,4.6692,4.6693,4.6694,4.6804,4.6806,0,0,0,0,0,0,4.6687,4.6687,4.672,4.672,4.6688,4.6691,4.6691,4.6701,4.6698,4.6696,4.6687,4.6683,4.6691,4.6693,4.6695,4.6748,4.6693,4.6694,4.6695,4.6802,4.6804,4.6806,0,0,0,0,0,0,4.6686,4.669,4.672,4.6703,4.6706,4.6694,4.6705,4.6702,4.6707,4.6698,4.6695,4.6695,4.669,4.6693,4.6722,4.6747,4.6695,4.6697,4.68,4.6803,4.6805,4.6854,0,0,0,0,0,0,4.6685,4.669,4.6707,4.6704,4.6707,4.6747,4.6707,4.6703,4.671,4.6706,4.6704,4.6702,4.6689,4.672,4.6724,4.6749,4.6698,4.6797,4.6801,4.6804,4.685,4.6858,4.6865,0,0,0,0,0,4.6683,4.6721,4.6709,4.6713,4.6729,4.6749,4.675,4.6734,4.6713,4.673,4.6724,4.6702,4.6744,4.6723,4.6727,4.6753,4.6796,4.68,4.6804,4.6847,4.6856,4.6865,0,0,0,0,0,0,4.6728,4.672,4.6706,4.6744,4.6747,4.6742,4.6763,4.6745,4.6755,4.675,4.673,4.673,4.6763,4.6761,4.6738,4.6797,4.6766,4.6771,4.6797,4.6806,4.6813,4.6813,4.67,0,0,0,0,0,4.6742,4.6759,4.6751,4.6785,4.6788,4.6775,4.6783,4.6771,4.6773,4.6774,4.677,4.6774,4.6787,4.6797,4.6809,4.685,4.6848,4.687,4.6877,4.6883,4.6888,4.6909,4.6918,4.682,4.682,4.682,0,0,4.6771,4.6769,4.6781,4.6794,4.6795,4.6813,4.6777,4.6797,4.681,4.6777,4.6805,4.6802,4.6804,4.684,4.6855,4.6839,4.6915,4.6889,4.6894,4.6895,4.6914,4.6924,4.6932,4.6823,4.6822,4.6822,0,0,4.6834,4.6835,4.6863,4.6864,4.6867,4.6858,4.6865,4.6862,4.6859,4.6886,4.6862,4.6877,4.6901,4.6904,4.6908,4.6972,4.6952,4.6976,4.7015,4.7036,4.7043,4.705,4.7072,4.7081,4.6981,4.6981,4.6981,0,4.687,4.6897,4.6879,4.6901,4.6907,4.6879,4.6907,4.691,4.6916,4.692,4.6903,4.6932,4.6932,4.6967,4.6983,4.6987,4.6994,4.6976,4.7044,4.705,4.7056,4.7077,4.7086,4.6984,4.6984,4.6983,4.6983,0,4.6941,4.6959,4.6982,4.6988,4.6997,4.7022,4.7008,4.7019,4.7006,4.6999,4.7027,4.7025,4.7036,4.7044,4.7031,4.7078,4.7068,4.7047,4.7016,4.7069,4.7088,4.7096,4.6988,4.6987,4.6986,4.6985,0,0,4.7031,4.7028,4.7036,4.7039,4.7039,4.7053,4.7077,4.7088,4.7097,4.7102,4.7121,4.7143,4.7124,4.7129,4.7116,4.7135,4.7184,4.7112,4.7111,4.7125,4.7235,4.725,4.7259,4.7172,4.7173,4.7174,4.7234,0,4.7092,4.7132,4.7117,4.7158,4.7175,4.7148,4.7168,4.7171,4.7165,4.7178,4.7172,4.7187,4.7161,4.7164,4.7181,4.7175,4.7206,4.717,4.7189,4.719,4.7189,4.7269,4.7285,4.7342,4.7242,4.7243,4.7244,0,4.7168,4.7176,4.7219,4.7216,4.7223,4.7241,4.725,4.7263,4.7265,4.726,4.7265,4.7249,4.7271,4.724,4.7271,4.7247,4.7254,4.7252,4.7254,4.7254,4.722,4.7272,4.7359,4.7368,4.7256,4.7255,4.7254,0,4.7229,4.7251,4.7279,4.7283,4.728,4.7294,4.7293,4.7293,4.7301,4.7309,4.7313,4.7323,4.7329,4.7337,4.7324,4.7302,4.7356,4.7324,4.7352,4.7352,4.7364,4.7363,4.7453,4.7369,4.7369,4.7369,4.7369,0,4.7299,4.7326,4.7307,4.7324,4.7354,4.7336,4.7366,4.7362,4.7363,4.7379,4.7356,4.7372,4.7353,4.7367,4.7356,4.7383,4.7386,4.7382,4.7379,4.7384,4.7384,4.7387,4.7383,4.7371,4.7371,4.737,4.737,0,4.7372,4.736,4.7389,4.7384,4.7384,4.7406,4.7401,4.7417,4.741,4.743,4.7434,4.7423,4.7438,4.7425,4.744,4.7432,4.7468,4.7459,4.7467,4.7465,4.7493,4.749,4.7588,4.76,4.7509,4.751,4.751,0,4.7416,4.7437,4.7434,4.7443,4.7444,4.7459,4.7466,4.745,4.7458,4.7462,4.7477,4.749,4.75,4.7525,4.7518,4.7529,4.752,4.7553,4.7521,4.7525,4.752,4.7518,4.752,4.756,4.7561,4.7562,4.7562,0,4.7497,4.749,4.7501,4.7511,4.7521,4.7528,4.7533,4.7541,4.7524,4.7535,4.755,4.7557,4.7572,4.7585,4.7594,4.7593,4.7575,4.7572,4.7579,4.7584,4.7588,4.7586,4.7484,4.757,4.7569,4.7569,4.7568,4.7568,4.7556,4.7573,4.7573,4.7587,4.7589,4.7594,4.7609,4.7603,4.7615,4.7626,4.7615,4.7633,4.7634,4.7644,4.7645,4.7659,4.7645,4.7655,4.7658,4.766,4.7664,4.7586,4.7661,4.766,4.766,4.766,4.766,0,4.7635,4.7634,4.7647,4.7654,4.7665,4.7647,4.7652,4.7662,4.7678,4.768,4.769,4.7707,4.772,4.7713,4.7724,4.7736,4.7728,4.774,4.7738,4.7738,4.7676,4.7669,4.7746,4.7746,4.7746,4.7746,4.7746,4.7746,4.7677,4.7704,4.7697,4.7725,4.7723,4.7741,4.7745,4.7749,4.7751,4.7771,4.7781,4.7777,4.7776,4.7787,4.7797,4.7795,4.78,4.7814,4.7809,4.7751,4.7743,4.7735,4.7728,4.7816,4.7816,4.787,4.7871,4.7871]}]]